Location: Gadern
(49.5873°N, 8.8138°E)
Time: 17:42:59
(UTC+00:00)

Meteor 1-27 Rocket - Pass Details

Date: 19 May 2025
Orbit: 829 x 908 km, 81.3° (Epoch: 16 June)

Event Time Altitude Azimuth Distance (km) Brightness Sun altitude
Exits shadow 22:30:52 32° 197° (SSW) 1,419 4.4 -19.5°
Maximum altitude 22:33:36 82° 282° (WNW) 856 3.7 -19.6°
Drops below altitude 10° 22:39:10 10° 11° (N) 2,456 7.1 -19.8°
Sets 22:41:35 0° 12° (NNE) 3,390 8.1 -19.9°
